Great Bend, KS

11:41 AM CDT on March 25, 2017 (GMT -0500)
Great Bend Municipal

Weather History for KGBD - August, 2014

Change the Weather History Date:

Tuesday, August 19, 2014

  Actual Average Record
Temperature  
Mean Temperature 82 °F -  
Max Temperature 96 °F 91 °F 105 °F (2011)
Min Temperature 68 °F 67 °F 51 °F (2012)
Cooling Degree Days 17    
Growing Degree Days 32 (Base 50)    
Moisture  
Dew Point 59 °F    
Average Humidity 46    
Maximum Humidity 68    
Minimum Humidity 25    
Precipitation  
Precipitation 0.00 in - - ()
Sea Level Pressure  
Sea Level Pressure 29.84 in    
Wind  
Wind Speed 15 mph (SSW)    
Max Wind Speed 29 mph    
Max Gust Speed 43 mph    
Visibility 10 miles    
Events Thunderstorm    
Averages and records for this station are not official NWS values.
T = Trace of Precipitation, MM = Missing Value Source: NWS Daily Summary

Daily Weather History Graph

Daily Weather History Graph

Search for Another Location

Airport or City:

Trip Planner

Search our weather history database for the weather conditions in past years. The results will help you decide how hot, cold, wet, or windy it might be!

Date:

Astronomy

Aug. 19, 2014 Rise Set
Actual Time 6:53 AM CDT 8:23 PM CDT
Civil Twilight 6:25 AM CDT 8:51 PM CDT
Nautical Twilight 5:52 AM CDT 9:25 PM CDT
Astronomical Twilight 5:16 AM CDT 10:00 PM CDT
Moon 1:48 AM CDT (8/19) 4:20 PM CDT (8/19)
Length of Visible Light 14h 26m
Length of Day
13h 30m
Waning Crescent, 29% of the Moon is Illuminated
Aug 19
Waning Crescent
Aug 25
New
Sep 2
First Quarter
Sep 8
Full
Sep 15
Last Quarter

Hourly Weather History & Observations

Time (CDT) Temp. Heat Index Dew Point Humidity Pressure Visibility Wind Dir Wind Speed Gust Speed Precip Events Conditions
12:15 AM 87.8 °F - 48.2 °F 25% 29.87 in 10.0 mi North 28.8 mph 38.0 mph N/A   Clear
12:35 AM 80.6 °F 80.8 °F 57.2 °F 45% 29.88 in 5.0 mi North 28.8 mph 42.6 mph N/A   Scattered Clouds
12:55 AM 78.8 °F - 55.4 °F 44% 29.90 in 10.0 mi NNW 18.4 mph 33.4 mph N/A   Mostly Cloudy
1:15 AM 78.8 °F - 53.6 °F 42% 29.93 in 10.0 mi NW 18.4 mph 25.3 mph N/A   Scattered Clouds
1:35 AM 77.0 °F - 55.4 °F 47% 29.92 in 10.0 mi West 10.4 mph - N/A   Mostly Cloudy
1:55 AM 73.4 °F - 57.2 °F 57% 29.90 in 10.0 mi SW 12.7 mph - N/A   Scattered Clouds
2:15 AM 73.4 °F - 55.4 °F 53% 29.88 in 10.0 mi SSW 11.5 mph - N/A   Clear
2:35 AM 75.2 °F - 55.4 °F 50% 29.88 in 10.0 mi SW 12.7 mph - N/A   Clear
2:55 AM 75.2 °F - 55.4 °F 50% 29.87 in 10.0 mi SW 15.0 mph 19.6 mph N/A   Clear
3:15 AM 75.2 °F - 57.2 °F 53% 29.86 in 10.0 mi SSW 17.3 mph - N/A   Clear
3:35 AM 75.2 °F - 57.2 °F 53% 29.85 in 10.0 mi SSW 15.0 mph - N/A   Clear
3:55 AM 75.2 °F - 57.2 °F 53% 29.85 in 10.0 mi SSW 15.0 mph - N/A   Clear
4:15 AM 75.2 °F - 55.4 °F 50% 29.85 in 10.0 mi SSW 16.1 mph 24.2 mph N/A   Clear
4:35 AM 75.2 °F - 57.2 °F 53% 29.85 in 10.0 mi SSW 19.6 mph 24.2 mph N/A   Clear
4:55 AM 73.4 °F - 57.2 °F 57% 29.86 in 10.0 mi SW 15.0 mph - N/A   Clear
5:15 AM 75.2 °F - 57.2 °F 53% 29.87 in 10.0 mi West 12.7 mph - N/A   Scattered Clouds
5:35 AM 73.4 °F - 57.2 °F 57% 29.86 in 10.0 mi WSW 9.2 mph - N/A   Scattered Clouds
5:55 AM 73.4 °F - 57.2 °F 57% 29.86 in 10.0 mi WNW 4.6 mph - N/A Thunderstorm Thunderstorm
6:15 AM 71.6 °F - 57.2 °F 60% 29.86 in 10.0 mi Calm Calm - N/A   Clear
6:35 AM 71.6 °F - 57.2 °F 60% 29.84 in 10.0 mi Calm Calm - N/A   Clear
6:55 AM 69.8 °F - 57.2 °F 64% 29.84 in 10.0 mi WSW 8.1 mph - N/A   Clear
7:15 AM 68.0 °F - 57.2 °F 68% 29.85 in 10.0 mi West 6.9 mph - N/A   Clear
7:35 AM 69.8 °F - 57.2 °F 64% 29.85 in 10.0 mi West 5.8 mph - N/A   Clear
7:55 AM 71.6 °F - 57.2 °F 60% 29.85 in 10.0 mi West 3.5 mph - N/A   Partly Cloudy
8:15 AM 73.4 °F - 57.2 °F 57% 29.85 in 10.0 mi West 4.6 mph - N/A   Clear
8:35 AM 77.0 °F - 57.2 °F 50% 29.85 in 10.0 mi WSW 6.9 mph - N/A   Clear
8:55 AM 78.8 °F - 57.2 °F 47% 29.85 in 10.0 mi SW 6.9 mph - N/A   Clear
9:15 AM 80.6 °F 80.8 °F 57.2 °F 45% 29.86 in 10.0 mi West 8.1 mph - N/A   Clear
9:35 AM 82.4 °F 82.0 °F 57.2 °F 42% 29.86 in 10.0 mi SW 9.2 mph - N/A   Clear
9:55 AM 84.2 °F 83.8 °F 59.0 °F 42% 29.86 in 10.0 mi SSW 9.2 mph - N/A   Clear
10:15 AM 84.2 °F 84.4 °F 60.8 °F 45% 29.88 in 10.0 mi South 13.8 mph 18.4 mph N/A   Clear
10:35 AM 84.2 °F 84.4 °F 60.8 °F 45% 29.88 in 10.0 mi South 16.1 mph - N/A   Clear
10:55 AM 84.2 °F 84.4 °F 60.8 °F 45% 29.88 in 10.0 mi SSE 13.8 mph - N/A   Clear
11:15 AM 87.8 °F 88.5 °F 62.6 °F 43% 29.87 in 10.0 mi SE 13.8 mph - N/A   Clear
11:35 AM 84.2 °F 84.4 °F 60.8 °F 45% 29.88 in 10.0 mi SE 13.8 mph - N/A   Clear
11:55 AM 87.8 °F 87.6 °F 60.8 °F 40% 29.88 in 10.0 mi SE 12.7 mph 18.4 mph N/A   Clear
12:15 PM 87.8 °F 87.6 °F 60.8 °F 40% 29.87 in 10.0 mi ESE 11.5 mph - N/A   Clear
12:35 PM 87.8 °F 87.6 °F 60.8 °F 40% 29.87 in 10.0 mi SSE 12.7 mph - N/A   Clear
12:55 PM 89.6 °F 90.1 °F 62.6 °F 40% 29.86 in 10.0 mi SSE 12.7 mph 16.1 mph N/A   Clear
1:15 PM 89.6 °F 90.1 °F 62.6 °F 40% 29.85 in 10.0 mi SE 11.5 mph 16.1 mph N/A   Clear
1:35 PM 91.4 °F 92.1 °F 62.6 °F 38% 29.84 in 10.0 mi SSE 11.5 mph 17.3 mph N/A   Clear
1:55 PM 91.4 °F 93.2 °F 64.4 °F 41% 29.84 in 10.0 mi SSE 13.8 mph 20.7 mph N/A   Clear
2:15 PM 93.2 °F 94.1 °F 62.6 °F 36% 29.83 in 10.0 mi South 15.0 mph - N/A   Clear
2:35 PM 95.0 °F 96.0 °F 62.6 °F 34% 29.82 in 10.0 mi South 12.7 mph 20.7 mph N/A   Clear
2:55 PM 95.0 °F 96.0 °F 62.6 °F 34% 29.82 in 10.0 mi South 15.0 mph - N/A   Clear
3:15 PM 96.8 °F 98.0 °F 62.6 °F 32% 29.81 in 10.0 mi SSE 13.8 mph 20.7 mph N/A   Clear
3:35 PM 96.8 °F 97.1 °F 60.8 °F 30% 29.80 in 10.0 mi SSW 16.1 mph 20.7 mph N/A   Clear
3:55 PM 96.8 °F 97.1 °F 60.8 °F 30% 29.79 in 10.0 mi South 17.3 mph 23.0 mph N/A   Clear
4:15 PM 96.8 °F 97.1 °F 60.8 °F 30% 29.79 in 7.0 mi SSW 16.1 mph 24.2 mph N/A   Clear
4:35 PM 96.8 °F 96.2 °F 59.0 °F 28% 29.78 in 10.0 mi SSW 20.7 mph 26.5 mph N/A   Clear
4:55 PM 96.8 °F 97.1 °F 60.8 °F 30% 29.78 in 10.0 mi South 21.9 mph 25.3 mph N/A   Clear
5:35 PM 96.8 °F 97.1 °F 60.8 °F 30% 29.77 in 10.0 mi South 23.0 mph 28.8 mph N/A   Clear
5:55 PM 96.8 °F 98.0 °F 62.6 °F 32% 29.78 in 10.0 mi South 19.6 mph 24.2 mph N/A   Clear
6:15 PM 95.0 °F 96.0 °F 62.6 °F 34% 29.78 in 10.0 mi SSW 17.3 mph 23.0 mph N/A   Clear
6:35 PM 93.2 °F 94.1 °F 62.6 °F 36% 29.77 in 10.0 mi South 18.4 mph 24.2 mph N/A   Clear
6:55 PM 93.2 °F 93.3 °F 60.8 °F 34% 29.77 in 10.0 mi South 19.6 mph 25.3 mph N/A   Clear
7:15 PM 91.4 °F 91.4 °F 60.8 °F 36% 29.77 in 10.0 mi South 17.3 mph 23.0 mph N/A   Clear
7:35 PM 91.4 °F 91.4 °F 60.8 °F 36% 29.77 in 10.0 mi South 16.1 mph - N/A   Clear
7:55 PM 89.6 °F 89.5 °F 60.8 °F 38% 29.77 in 10.0 mi South 13.8 mph - N/A   Clear
8:15 PM 87.8 °F 87.6 °F 60.8 °F 40% 29.78 in 10.0 mi South 9.2 mph - N/A   Clear
8:35 PM 82.4 °F 83.4 °F 62.6 °F 51% 29.78 in 10.0 mi SSE 8.1 mph - N/A   Clear
8:55 PM 82.4 °F 83.4 °F 62.6 °F 51% 29.79 in 10.0 mi SSE 8.1 mph - N/A   Clear
9:55 PM 78.8 °F - 62.6 °F 57% 29.80 in 10.0 mi SSE 9.2 mph - N/A   Clear
10:15 PM 78.8 °F - 62.6 °F 57% 29.81 in 10.0 mi SSE 10.4 mph - N/A   Clear
10:35 PM 77.0 °F - 62.6 °F 61% 29.81 in 10.0 mi SSE 10.4 mph - N/A   Clear
10:55 PM 77.0 °F - 62.6 °F 61% 29.81 in 10.0 mi South 10.4 mph - N/A   Clear
11:15 PM 77.0 °F - 62.6 °F 61% 29.82 in 10.0 mi South 9.2 mph - N/A   Clear
11:35 PM 75.2 °F - 62.6 °F 65% 29.83 in 10.0 mi South 9.2 mph - N/A   Clear
11:55 PM 75.2 °F - 60.8 °F 61% 29.83 in 10.0 mi South 9.2 mph - N/A   Clear